Location: Peach Mountain Observatory
(42.3967°N, 83.9367°W)
Time: 16:00:27
(UTC-05:00)

Vanguard 1 Rocket - Pass Details

Date: 28 January 2020
Orbit: 650 x 4226 km, 34.3° (Epoch: 26 February)

Event Time Altitude Azimuth Distance (km) Brightness Sun altitude
Rises 17:55:38 0° 270° (W) 6,954 13.4 -2.8°
Reaches altitude 10° 18:04:18 10° 248° (WSW) 6,648 13.8 -4.3°
Maximum altitude 18:12:46 13° 226° (SW) 6,822 13.0 -5.8°
Drops below altitude 10° 18:22:12 10° 203° (SSW) 7,394 12.6 -7.4°
Sets 18:33:49 0° 182° (S) 8,370 12.5 -9.5°
